Sioux Falls, SD

5:03 AM CDT on May 25, 2017 (GMT -0500)
Foss

Weather History for KFSD - November, 2012

Change the Weather History Date:

Monday, November 5, 2012

  Actual Average Record
Temperature  
Mean Temperature 37 °F 39 °F  
Max Temperature 39 °F 49 °F 75 °F (2001)
Min Temperature 34 °F 28 °F -2 °F (1951)
Degree Days  
Heating Degree Days 28 26  
Month to date heating degree days 135 126  
Since 1 July heating degree days 870 866  
Cooling Degree Days 0 0  
Month to date cooling degree days 0 0  
Year to date cooling degree days 1182 690  
Moisture  
Dew Point 33 °F    
Average Humidity 87    
Maximum Humidity 97    
Minimum Humidity 75    
Precipitation  
Precipitation T in 0.05 in 1.37 in (1905)
Month to date precipitation 0.13 0.23  
Year to date precipitation 15.81 24.56  
Snow  
Snow 0.00 in 0.20 in 5.70 in (2013)
Month to date snowfall 0.0 0.8  
Since 1 July snowfall 1.1 2.1  
Since 1 September snowfall 1.1 2.1  
Snow Depth 0.00 in    
Sea Level Pressure  
Sea Level Pressure 30.13 in    
Wind  
Wind Speed 9 mph (NW)    
Max Wind Speed 20 mph    
Max Gust Speed 26 mph    
Visibility 8 miles    
Events Rain    
T = Trace of Precipitation, MM = Missing Value Source: NWS Daily Summary

Daily Weather History Graph

Daily Weather History Graph

Search for Another Location

Airport or City:

Trip Planner

Search our weather history database for the weather conditions in past years. The results will help you decide how hot, cold, wet, or windy it might be!

Date:

Astronomy

Nov. 05, 2012 Rise Set
Actual Time 7:08 AM CST 5:12 PM CST
Civil Twilight 6:38 AM CST 5:42 PM CST
Nautical Twilight 6:04 AM CST 6:16 PM CST
Astronomical Twilight 5:30 AM CST 6:49 PM CST
Moon 10:51 PM CST (11/5) 12:28 PM CST (11/5)
Length of Visible Light 11h 03m
Length of Day
10h 03m
Waning Gibbous, 62% of the Moon is Illuminated
Nov 5
Waning Gibbous
Nov 6
Last Quarter
Nov 13
New
Nov 20
First Quarter
Nov 28
Full

Hourly Weather History & Observations

Time (CST) Temp. Windchill Dew Point Humidity Pressure Visibility Wind Dir Wind Speed Gust Speed Precip Events Conditions
12:38 AM 35.6 °F 29.9 °F 33.8 °F 93% 30.11 in 5.0 mi North 6.9 mph - 0.00 in Rain Light Rain
12:52 AM 35.6 °F 29.9 °F 33.8 °F 93% 30.11 in 5.0 mi North 6.9 mph - 0.00 in   Overcast
12:56 AM 35.1 °F 28.6 °F 34.0 °F 96% 30.15 in 5.0 mi North 8.1 mph - 0.00 in   Overcast
1:56 AM 35.1 °F 27.9 °F 34.0 °F 96% 30.18 in 6.0 mi North 9.2 mph - 0.00 in Rain Light Rain
2:56 AM 36.0 °F 29.6 °F 35.1 °F 97% 30.18 in 4.0 mi North 8.1 mph - 0.00 in   Overcast
3:56 AM 37.0 °F 30.4 °F 35.1 °F 93% 30.17 in 7.0 mi North 9.2 mph - N/A   Overcast
4:23 AM 37.4 °F 30.8 °F 35.6 °F 93% 30.14 in 8.0 mi North 9.2 mph - N/A   Overcast
4:56 AM 37.0 °F 29.8 °F 34.0 °F 89% 30.19 in 5.0 mi North 10.4 mph - N/A   Overcast
5:56 AM 37.0 °F 29.8 °F 34.0 °F 89% 30.20 in 8.0 mi North 10.4 mph - N/A   Overcast
6:31 AM 35.6 °F 28.6 °F 33.8 °F 93% 30.16 in 9.0 mi North 9.2 mph - N/A   Mostly Cloudy
6:56 AM 34.0 °F 27.2 °F 32.0 °F 92% 30.19 in 9.0 mi NNE 8.1 mph - N/A   Scattered Clouds
7:06 AM 35.6 °F 28.0 °F 33.8 °F 93% 30.14 in 9.0 mi North 10.4 mph - N/A   Mostly Cloudy
7:56 AM 36.0 °F 29.6 °F 34.0 °F 93% 30.20 in 6.0 mi North 8.1 mph - N/A   Overcast
8:56 AM 37.0 °F 31.0 °F 34.0 °F 89% 30.21 in 6.0 mi North 8.1 mph - N/A   Overcast
9:56 AM 37.9 °F 31.5 °F 35.1 °F 89% 30.22 in 6.0 mi NNW 9.2 mph - N/A   Overcast
10:56 AM 37.9 °F 33.5 °F 34.0 °F 86% 30.22 in 6.0 mi NNW 5.8 mph - N/A   Overcast
11:56 AM 39.0 °F 34.8 °F 34.0 °F 82% 30.21 in 9.0 mi NW 5.8 mph - N/A   Overcast
12:56 PM 39.0 °F 34.8 °F 34.0 °F 82% 30.18 in 8.0 mi WNW 5.8 mph - N/A   Overcast
1:56 PM 39.0 °F 34.0 °F 34.0 °F 82% 30.16 in 9.0 mi West 6.9 mph - N/A   Overcast
2:56 PM 37.9 °F 33.5 °F 34.0 °F 86% 30.14 in 10.0 mi West 5.8 mph - N/A   Overcast
3:56 PM 37.9 °F 33.5 °F 33.1 °F 83% 30.13 in 10.0 mi SSW 5.8 mph - N/A   Overcast
4:56 PM 37.0 °F 32.4 °F 32.0 °F 82% 30.12 in 10.0 mi SSW 5.8 mph - N/A   Overcast
5:56 PM 37.0 °F 33.3 °F 32.0 °F 82% 30.12 in 10.0 mi SSW 4.6 mph - N/A   Overcast
6:56 PM 37.0 °F 31.0 °F 32.0 °F 82% 30.10 in 10.0 mi SSW 8.1 mph - N/A   Overcast
7:36 PM 37.4 °F 32.1 °F 32.0 °F 81% 30.04 in 10.0 mi South 6.9 mph - N/A   Overcast
7:56 PM 37.0 °F 30.4 °F 32.0 °F 82% 30.07 in 10.0 mi South 9.2 mph - N/A   Overcast
8:56 PM 37.0 °F 28.9 °F 32.0 °F 82% 30.06 in 10.0 mi South 12.7 mph - N/A   Overcast
9:39 PM 37.4 °F 30.3 °F 32.0 °F 81% 29.98 in 10.0 mi South 10.4 mph - N/A   Overcast
9:56 PM 37.0 °F 28.1 °F 32.0 °F 82% 30.01 in 10.0 mi South 15.0 mph - N/A   Overcast
10:56 PM 37.0 °F 28.5 °F 33.1 °F 86% 29.97 in 10.0 mi South 13.8 mph - N/A   Overcast
11:56 PM 37.0 °F 27.7 °F 33.1 °F 86% 29.94 in 10.0 mi South 16.1 mph 23.0 mph N/A   Overcast